Houma, LA

7:52 PM CDT on October 17, 2017 (GMT -0500)
Houma-terrebonne

Weather History for KHUM - May, 2013

Change the Weather History Date:

Wednesday, May 1, 2013

  Actual Average Record
Temperature  
Mean Temperature 72 °F -  
Max Temperature 78 °F 80 °F 90 °F (1943)
Min Temperature 66 °F 64 °F 49 °F (1965)
Cooling Degree Days 7    
Growing Degree Days 22 (Base 50)    
Moisture  
Dew Point 66 °F    
Average Humidity 85    
Maximum Humidity 94    
Minimum Humidity 61    
Precipitation  
Precipitation 0.00 in - - ()
Sea Level Pressure  
Sea Level Pressure 29.86 in    
Wind  
Wind Speed 4 mph (NE)    
Max Wind Speed 17 mph    
Max Gust Speed -    
Visibility 6 miles    
Events Fog    
Averages and records for this station are not official NWS values.
T = Trace of Precipitation, MM = Missing Value Source: NWS Daily Summary

Daily Weather History Graph

Daily Weather History Graph

Search for Another Location

Airport or City:

Trip Planner

Search our weather history database for the weather conditions in past years. The results will help you decide how hot, cold, wet, or windy it might be!

Date:

Astronomy

May. 01, 2013 Rise Set
Actual Time 6:20 AM CDT 7:39 PM CDT
Civil Twilight 5:54 AM CDT 8:04 PM CDT
Nautical Twilight 5:24 AM CDT 8:34 PM CDT
Astronomical Twilight 4:53 AM CDT 9:06 PM CDT
Moon 12:48 AM CDT (5/1) 11:58 AM CDT (5/1)
Length of Visible Light 14h 09m
Length of Day
13h 19m
Waning Gibbous, 59% of the Moon is Illuminated
May 1
Waning Gibbous
May 2
Last Quarter
May 9
New
May 17
First Quarter
May 24
Full

Hourly Weather History & Observations

Time (CDT) Temp. Dew Point Humidity Pressure Visibility Wind Dir Wind Speed Gust Speed Precip Events Conditions
12:15 AM 68.4 °F 65.3 °F 90% 29.87 in 7.0 mi ENE 3.5 mph - N/A   Overcast
12:55 AM 67.5 °F 64.8 °F 91% 29.86 in 7.0 mi Calm Calm - N/A   Mostly Cloudy
1:15 AM 68.9 °F 66.0 °F 90% 29.84 in 7.0 mi Calm Calm - N/A   Overcast
1:35 AM 68.5 °F 65.8 °F 91% 29.84 in 7.0 mi ENE 3.5 mph - N/A   Overcast
1:55 AM 68.9 °F 66.2 °F 91% 29.82 in 7.0 mi ENE 4.6 mph - N/A   Overcast
2:15 AM 69.1 °F 66.2 °F 91% 29.82 in 7.0 mi ENE 3.5 mph - N/A   Overcast
2:35 AM 68.9 °F 66.2 °F 91% 29.81 in 7.0 mi NE 3.5 mph - N/A   Overcast
2:55 AM 68.7 °F 66.2 °F 92% 29.81 in 5.0 mi NE 3.5 mph - N/A   Mostly Cloudy
3:15 AM 68.2 °F 65.7 °F 92% 29.80 in 5.0 mi NE 4.6 mph - N/A   Mostly Cloudy
3:35 AM 68.2 °F 65.8 °F 92% 29.81 in 5.0 mi Calm Calm - N/A   Scattered Clouds
3:55 AM 67.6 °F 65.3 °F 92% 29.82 in 4.0 mi Calm Calm - N/A   Scattered Clouds
4:15 AM 67.3 °F 65.1 °F 93% 29.83 in 1.5 mi Calm Calm - N/A   Overcast
4:35 AM 67.3 °F 65.3 °F 93% 29.83 in 0.8 mi Calm Calm - N/A   Overcast
4:55 AM 66.0 °F 63.9 °F 93% 29.84 in 0.5 mi Calm Calm - N/A Fog Fog
5:15 AM 67.1 °F 65.1 °F 93% 29.84 in 5.0 mi Calm Calm - N/A   Mostly Cloudy
5:35 AM 67.1 °F 65.1 °F 93% 29.85 in 3.0 mi Calm Calm - N/A   Mostly Cloudy
5:49 AM 66.2 °F 64.4 °F 94% 29.86 in 6.0 mi ENE 9.2 mph - N/A   Mostly Cloudy
5:55 AM 66.2 °F 64.4 °F 94% 29.85 in 3.0 mi ENE 4.6 mph - N/A   Mostly Cloudy
6:50 AM 68.0 °F 66.2 °F 94% 29.87 in 2.0 mi NE 4.6 mph - N/A   Scattered Clouds
7:40 AM 69.8 °F 66.2 °F 88% 29.88 in 5.0 mi NE 4.6 mph - N/A   Mostly Cloudy
7:50 AM 69.8 °F 68.0 °F 94% 29.88 in 5.0 mi NE 4.6 mph - N/A   Mostly Cloudy
8:40 AM 73.4 °F 68.0 °F 83% 29.89 in 5.0 mi NE 4.6 mph - N/A   Mostly Cloudy
8:51 AM 73.4 °F 68.0 °F 83% 29.89 in 5.0 mi ENE 10.4 mph - N/A   Mostly Cloudy
9:49 AM 75.2 °F 68.0 °F 78% 29.90 in 6.0 mi ENE 4.6 mph - N/A   Mostly Cloudy
10:24 AM 73.4 °F 66.2 °F 78% 29.89 in 7.0 mi ESE 17.3 mph - N/A   Mostly Cloudy
11:50 AM 73.4 °F 62.6 °F 69% 29.88 in 7.0 mi ESE 13.8 mph - N/A   Mostly Cloudy
1:50 PM 73.4 °F 64.4 °F 73% 29.87 in 7.0 mi North 5.8 mph - N/A   Mostly Cloudy
2:50 PM 73.4 °F 64.4 °F 73% 29.87 in 7.0 mi NNW 4.6 mph - N/A   Mostly Cloudy
3:50 PM 75.2 °F 69.8 °F 83% 29.83 in 7.0 mi South 6.9 mph - N/A   Scattered Clouds
4:50 PM 78.8 °F 64.4 °F 61% 29.81 in 7.0 mi WSW 9.2 mph - N/A   Scattered Clouds
5:55 PM 78.8 °F 64.4 °F 61% 29.84 in 7.0 mi WNW 4.6 mph - N/A   Scattered Clouds
6:55 PM 75.2 °F 66.2 °F 73% 29.85 in 7.0 mi NNW 9.2 mph - N/A   Scattered Clouds
7:15 PM 75.0 °F 66.2 °F 74% 29.85 in 7.0 mi Calm Calm - N/A   Clear
7:35 PM 74.5 °F 66.6 °F 76% 29.84 in 7.0 mi NW 3.5 mph - N/A   Clear
7:55 PM 72.7 °F 66.2 °F 80% 29.85 in 7.0 mi NNW 5.8 mph - N/A   Clear
8:15 PM 71.6 °F 66.2 °F 83% 29.86 in 10.0 mi NNE 4.6 mph - N/A   Clear
8:35 PM 71.8 °F 65.1 °F 79% 29.87 in 10.0 mi NNE 5.8 mph - N/A   Scattered Clouds
8:55 PM 70.9 °F 65.3 °F 82% 29.88 in 10.0 mi NNE 6.9 mph - N/A   Scattered Clouds
9:15 PM 70.7 °F 65.7 °F 84% 29.88 in 7.0 mi NNE 9.2 mph - N/A   Clear
9:35 PM 70.0 °F 65.5 °F 86% 29.89 in 7.0 mi NNE 5.8 mph - N/A   Clear
9:55 PM 69.1 °F 65.3 °F 88% 29.89 in 10.0 mi NNE 3.5 mph - N/A   Clear
10:35 PM 67.3 °F 64.4 °F 90% 29.88 in 10.0 mi Calm Calm - N/A   Clear
10:55 PM 67.3 °F 64.4 °F 90% 29.88 in 7.0 mi NNE 5.8 mph - N/A   Clear
11:15 PM 67.3 °F 63.9 °F 89% 29.88 in 7.0 mi NNE 4.6 mph - N/A   Clear
11:35 PM 67.1 °F 63.7 °F 89% 29.89 in 7.0 mi North 3.5 mph - N/A   Scattered Clouds
11:55 PM 66.4 °F 63.5 °F 90% 29.89 in 10.0 mi NNW 3.5 mph - N/A   Mostly Cloudy